Regional Weather Roundup
Issued by NWS

Home | Current Version | Previous Version | Graphics & Text | Print | Product List | Glossary Off
Versions: 1 2 3 4 5 6 7 8 9 10 11 12 13 14 15 16 17 18 19 20 21 22 23 24 25 26 27 28 29 30 31 32 33 34 35 36 37 38 39 40 41 42 43 44 45 46 47 48 49 50

000
ASUS45 KCYS 290410
RWRWY

WYOMING REGIONAL WEATHER ROUNDUP
NATIONAL WEATHER SERVICE CHEYENNE WY
1000 PM MDT THU AUG 28 2014

NOTE:  "FAIR" INDICATES FEW OR NO CLOUDS BELOW 12,000 FEET
WITH NO SIGNIFICANT WEATHER AND/OR OBSTRUCTIONS TO VISIBILITY.

WYZ001-290500-
YELLOWSTONE NATIONAL PARK

CITY           SKY/WX    TMP DP  RH WIND       PRES   REMARKS
LK YELLOWSTONE   N/A     48  45  89 W7        30.38R
W YELLOWSTONE  NOT AVBL

$$
WYZ002>013-054>058-071-098>099-290500-
NORTHERN WYOMING

CITY           SKY/WX    TMP DP  RH WIND       PRES   REMARKS
JACKSON        PTCLDY    61  45  55 CALM      30.20S
CODY           PTCLDY    72  45  37 CALM      30.02R
GREYBULL       PTCLDY    72  47  40 SE3       29.94S
WORLAND        CLEAR     67  44  43 S12       29.96F
SHERIDAN       CLEAR     58  48  69 SW5       29.96S
BUFFALO        CLEAR     65  46  50 SW9       30.04F
GILLETTE       CLEAR     58  51  78 S7        29.98F
HULETT         FAIR      63  46  55 MISG      29.99
NEWCASTLE      FAIR      61  54  77 CALM      30.00

$$
WYZ014>020-022>026-101>103-290500-
CENTRAL WYOMING

CITY           SKY/WX    TMP DP  RH WIND       PRES   REMARKS
BIG PINEY      CLEAR     54  42  64 NW13      30.24S
PINEDALE       CLEAR     52  43  71 NW6       30.26R
DUBOIS         FAIR      59  36  41 N9        30.22R
LANDER         CLEAR     65  45  48 W9        30.07R
RIVERTON       CLEAR     69  39  33 SE6       30.08S
CASPER         CLEAR     56  47  71 SW6       30.08R
DOUGLAS        PTCLDY    59  52  77 CALM      30.06S

$$
WYZ021-027>030-104>119-290500-
SOUTHERN WYOMING

CITY           SKY/WX    TMP DP  RH WIND       PRES   REMARKS
EVANSTON       CLEAR     58  43  57 W10       30.30R
KEMMERER       CLEAR     55  43  62 SW6       30.29S
FORT BRIDGER   FAIR      59  46  62 W9        30.31R
ROCK SPRINGS   CLEAR     62  42  47 W12       30.23R
DIXON          FAIR      55  50  81 CALM      30.25S
RAWLINS        CLEAR     55  41  59 CALM      30.21S
SARATOGA       FAIR      54  45  71 CALM      30.24R
LARAMIE        CLEAR     52  42  69 W9        30.22S
CHEYENNE       CLEAR     54  51  90 SW8       30.15S
TORRINGTON       N/A     61  51  70 S6        30.02S
PINE BLUFFS    FAIR      52  48  87 SW5       30.11F

$$


USA.gov is the U.S. government's official web portal to all federal, state and local government web resources and services.